* Astronomy

Members Login
Username 
 
Password 
    Remember Me  
Post Info TOPIC: ATLAS 5 rocket body re-entry


L

Posts: 131433
Date:
RE: ATLAS 5 rocket body re-entry
Permalink  
 


Update:
The ATLAS 5 rocket body re-entered the Earths atmosphere on the 17th August, 2011 @ 12:56 GMT  ± 1 minute.

Inclination: 21.04°
Revolution Number: 355
Predicted Location:  3°S, 69°E



__________________


L

Posts: 131433
Date:
Permalink  
 

Predicted Decay Location:

Atlas5rbc.gif
Expand (27kb, 857 x 564)



__________________


L

Posts: 131433
Date:
Permalink  
 

Update:
The ATLAS 5 rocket body is predicted to re-enter the Earths atmosphere on the 17th August, 2011 @ 12:23 GMT  ± 7 hours.

ATLAS 5 R/B
1 37482U 11019B   11227.62584373 +.52552715 -25759-4 +22004-2 0 01051
2 37482 021.0474 245.7189 2268328 312.6187 133.0768 11.31359302003312


Period:       129.53 minutes
Inclination: 21.05°
Apogee:     4095 km
Perigee:     109 km
Revolution Number: 355
Predicted Location:  20.2°S, 338.9°E



__________________


L

Posts: 131433
Date:
Permalink  
 

Update:
The ATLAS 5 rocket body is predicted to re-enter the Earths atmosphere on the 17th August, 2011 @ 10:36 GMT  ± 24 hours.

ATLAS 5 RB
1 37482U 11019B   11226.64774502 +.44576772 -22260-4 +19246-2 0 01011
2 37482 021.0818 249.3876 2734885 306.3961 288.3682 10.31421641003205


Period:       142.23 minutes
Inclination: 21.06°
Apogee:     5182 km
Perigee:     113 km
Revolution Number: 354
Predicted Location:  17.6°S, 57.5°E



__________________


L

Posts: 131433
Date:
Permalink  
 

Update:
The ATLAS 5 rocket body is predicted to re-enter the Earths atmosphere on the 17th August, 2011 @ 08:50 GMT  ± 48 hours.

ATLAS 5 RB
1 37482U 11019B   11225.69069581 +.36536340 -19936-4 +22784-2 0 00978
2 37482 021.0605 252.3013 3116409 300.8827 119.9381 09.50171418003111


Period:       142.23 minutes
Inclination: 21.06°
Apogee:     5182 km
Perigee:     113 km
Revolution Number: 353
Predicted Location:  18.8°S, 77.4°E



__________________


L

Posts: 131433
Date:
Permalink  
 

Update:
The ATLAS 5 rocket body is predicted to re-enter the Earths atmosphere on the 17th August, 2011 @ 08:50 GMT  ± 48 hours.

ATLAS 5 RB
1 37482U 11019B   11224.73703017 +.24181486 -18688-4 +15679-2 0 00917
2 37482 021.0600 254.8678 3422760 296.1646 206.8216 08.87866936003024


Period:       154.97 minutes
Inclination: 21.07°
Apogee:     6246 km
Perigee:     112 km
Revolution Number: 353
Predicted Location:  18.8°S, 77.4°E



__________________


L

Posts: 131433
Date:
Permalink  
 

An ATLAS 5 rocket body that was launched on the 7th May, 2011, from the Cape Canaveral, for the SBIRS GEO 1 satellite mission is predicted to re-enter the Earths atmosphere on the --th June, 2011 @ --:-- GMT  ± -- hours.

ATLAS 5 RB
1 37482U 11019B 11139.21269991 +.00200108 -16290-4 +18815-3 0 00249
2 37482 021.1870 317.1149 7292884 184.2967 161.4740 02.33912148000262


Period:       616.51 minutes
Inclination: 21.19°
Apogee:     35124 km
Perigee:     110 km
Revolution Number: -
Predicted Location:  -



__________________
Page 1 of 1  sorted by
 
Quick Reply

Please log in to post quick replies.



Create your own FREE Forum
Report Abuse
Powered by ActiveBoard